Temp
13 13 13 14 11 13 16 18 18 17 16 14 14 14 14 15 14 14 13 13 13 14 14 14 14 14 13 12 12 12 11 11 11 11 10 10 9 9 9 8 8 8 8 8 8 8 8 8 8
13 13 12 12 13 16 18 17 17 16 15 15 14 14 14 14 13 13 14 13 13 14 14 14 14 14 13 12 12 11 11 11 10 10 10 9 9 9 9 8 8 8 8 8 8 8 8 8 8
12 13 11 12 14 16 18 17 16 16 15 14 14 14 14 13 13 13 13 13 13 13 14 13 13 13 12 12 11 11 11 10 10 10 9 9 9 9 8 8 8 8 8 8 8 8 8 8 8
13 10 11 12 14 16 17 16 16 15 15 14 14 14 14 13 13 13 13 13 13 13 13 13 13 13 13 12 11 11 11 10 10 10 9 9 9 8 8 8 8 8 8 8 8 8 8 8 8
11 10 11 13 14 16 16 15 15 14 14 14 14 13 13 12 13 13 13 12 12 12 12 13 12 13 13 12 11 11 10 10 10 10 9 9 9 8 8 8 8 8 8 8 8 8 8 8 7
10 10 12 13 15 16 16 15 14 13 13 13 13 13 13 12 12 13 12 12 11 12 12 12 12 12 12 12 11 11 10 10 10 9 9 9 8 8 8 8 8 7 7 7 7 8 8 8 7
11 11 12 13 13 14 15 15 14 13 12 13 13 12 12 11 10 12 12 11 11 11 11 12 12 12 12 12 11 11 10 10 9 9 9 9 8 8 8 8 7 7 7 7 7 7 7 7 7
9 10 11 12 13 14 15 15 14 13 12 12 11 11 11 10 10 10 11 10 11 11 11 11 11 11 11 11 11 11 11 10 9 9 9 9 8 8 8 8 7 7 7 7 7 7 7 7 7
9 9 11 12 14 15 14 14 13 13 12 12 11 11 11 10 10 10 11 11 10 10 10 11 11 11 11 11 11 11 10 10 10 9 9 8 8 8 8 8 7 7 7 7 7 7 7 7 7
9 10 11 12 13 13 13 12 12 11 11 11 11 11 11 10 10 9 9 10 11 10 11 10 11 11 11 11 10 10 10 10 9 9 9 9 8 8 8 8 7 7 7 7 7 7 7 7 7
10 10 11 11 11 11 11 11 11 10 10 10 10 10 10 10 9 9 9 8 8 10 11 10 10 10 10 10 10 10 10 10 9 9 9 8 8 8 8 8 7 7 7 7 6 6 7 7 6
10 10 10 10 10 10 10 10 9 9 9 10 9 9 9 9 9 9 8 8 8 8 9 11 10 10 10 10 10 10 9 9 8 9 9 8 7 8 8 8 7 7 7 6 6 6 6 6 6
9 10 10 10 10 10 9 9 9 9 9 9 9 10 9 9 9 9 9 9 8 8 7 10 11 10 10 9 10 10 10 9 8 8 8 8 7 7 7 7 7 7 6 6 6 6 6 6 6
8 8 9 9 8 8 8 9 9 10 10 10 10 10 9 9 9 9 10 10 10 8 7 8 10 10 10 10 9 9 9 10 9 9 9 8 7 7 7 7 6 6 6 6 6 6 6 6 6
7 7 7 7 8 8 9 9 9 10 10 10 10 9 9 9 8 9 9 9 9 9 9 8 10 11 10 10 9 9 9 9 9 10 8 8 7 7 7 7 7 7 6 6 5 5 5 5 5
6 6 7 9 9 10 9 9 10 10 10 10 9 9 9 9 8 8 8 8 8 8 8 7 7 9 10 9 9 9 9 8 8 9 9 8 7 7 7 7 6 6 6 6 6 5 5 5 5
6 7 8 9 11 10 10 10 10 10 9 9 9 9 9 8 8 8 8 7 7 7 7 6 6 6 8 8 8 8 8 8 8 8 8 8 8 6 6 6 6 5 5 5 6 5 5 5 5
8 9 10 10 11 11 11 10 10 9 9 9 9 9 9 9 8 8 7 7 7 9 8 7 6 6 6 8 8 8 8 8 8 8 8 8 8 7 6 6 6 5 5 5 5 5 5 4 4
7 8 9 9 10 10 10 9 9 9 9 9 9 10 9 8 8 7 7 8 7 7 8 9 8 6 6 7 8 8 8 7 7 7 7 6 7 7 5 5 4 5 5 4 4 4 4 4 4
7 7 8 8 9 9 9 9 9 10 10 10 9 9 8 8 8 7 7 7 8 7 7 7 7 7 6 6 6 8 8 8 7 8 7 7 6 6 6 5 5 5 5 4 4 4 4 4 4
8 8 8 8 8 8 8 8 10 10 10 10 8 8 8 8 7 7 7 7 7 7 7 7 8 7 5 5 6 5 6 8 8 7 7 7 7 6 6 6 4 5 6 5 4 3 3 3 4
7 7 7 7 7 7 8 9 9 10 10 8 7 7 7 7 6 6 6 6 5 6 6 6 6 6 6 5 5 6 5 4 7 7 6 6 6 6 6 6 4 4 4 5 5 5 4 4 3
6 6 7 7 6 6 7 8 9 11 9 6 6 5 5 5 5 5 4 3 3 3 4 3 3 3 2 2 3 4 5 5 3 5 6 4 5 5 5 6 5 4 4 4 5 5 5 4 4
6 6 6 6 6 6 7 8 9 10 9 5 4 5 4 2 2 2 2 2 1 1 -0 -0 0 1 2 2 2 2 3 3 3 2 4 5 5 4 3 4 4 3 4 3 4 4 4 4 4
5 5 5 5 5 6 9 9 9 10 9 7 4 2 1 1 1 1 1 -0 -1 -2 -2 -1 -1 -2 -3 -2 0 1 2 2 2 2 2 1 3 4 4 3 3 3 3 3 3 3 2 4 4
4 5 5 5 7 9 9 9 10 9 7 6 4 2 1 1 0 -0 -0 -1 -1 -2 -2 -3 -2 -1 -2 -2 -0 0 -1 -1 1 -0 -0 0 2 2 4 1 2 1 2 3 3 3 3 3 2
5 4 5 6 5 6 7 8 9 7 4 4 2 1 0 0 -0 -1 -1 -2 -2 -3 -3 -3 -4 -3 -1 -2 -2 -1 -1 -2 -1 -1 -2 -3 -0 1 2 1 2 2 2 2 3 2 3 2 2
4 5 4 3 2 3 6 7 7 5 2 2 2 1 0 -1 -1 -1 -2 -2 -3 -3 -3 -4 -4 -4 -4 -1 -2 -2 -1 -1 -1 -1 -2 -2 -2 -0 -1 1 2 2 2 2 2 2 1 2 2
2 3 3 2 2 3 4 5 3 2 2 0 1 0 -0 0 -1 -2 -2 -2 -3 -3 -4 -4 -5 -5 -3 -2 -2 -2 -2 -2 -1 -1 -1 -2 -3 -1 -0 1 1 1 1 1 2 2 2 2 2
2 2 1 0 -0 -0 0 2 3 2 -0 -0 -0 -0 -1 -2 -2 -2 -3 -3 -4 -5 -5 -5 -5 -5 -4 -4 -3 -3 -2 -1 -1 -0 -1 -2 -3 -2 -0 -1 1 1 1 1 2 1 1 0 1
Height
3161 3161 3162 3161 3167 3162 3155 3154 3152 3156 3158 3156 3158 3158 3159 3160 3159 3161 3157 3158 3155 3158 3157 3158 3158 3158 3158 3158 3160 3162 3162 3163 3164 3164 3165 3166 3167 3168 3168 3169 3169 3170 3170 3170 3170 3169 3169 3169 3169
3160 3160 3161 3162 3165 3158 3156 3154 3155 3155 3156 3157 3159 3159 3160 3161 3156 3154 3157 3156 3154 3156 3156 3156 3156 3155 3155 3156 3159 3160 3161 3162 3163 3164 3164 3165 3166 3166 3167 3168 3169 3169 3169 3170 3170 3170 3169 3169 3169
3160 3160 3161 3164 3162 3156 3156 3156 3157 3157 3158 3158 3158 3159 3159 3158 3153 3154 3155 3156 3153 3151 3155 3154 3154 3154 3153 3154 3156 3158 3159 3160 3161 3162 3163 3163 3165 3165 3166 3167 3167 3168 3168 3168 3168 3169 3169 3170 3169
3159 3160 3162 3161 3159 3156 3156 3156 3158 3158 3160 3158 3158 3158 3159 3154 3151 3150 3151 3152 3151 3148 3151 3152 3152 3151 3151 3151 3153 3155 3157 3157 3159 3160 3161 3162 3163 3164 3165 3165 3166 3166 3167 3168 3168 3168 3169 3169 3169
3157 3160 3160 3158 3157 3154 3155 3155 3156 3157 3158 3157 3156 3156 3157 3150 3150 3145 3147 3147 3146 3145 3147 3149 3149 3149 3149 3149 3150 3152 3154 3155 3156 3157 3158 3160 3161 3162 3163 3164 3165 3165 3166 3166 3167 3168 3168 3167 3168
3156 3160 3158 3156 3154 3153 3154 3152 3153 3155 3156 3156 3155 3153 3154 3147 3145 3144 3145 3143 3143 3142 3142 3145 3146 3147 3146 3146 3147 3149 3151 3152 3154 3155 3156 3157 3158 3160 3161 3161 3163 3164 3164 3165 3165 3165 3166 3166 3165
3155 3158 3155 3153 3151 3151 3153 3150 3151 3152 3153 3154 3151 3149 3150 3144 3138 3143 3142 3140 3140 3139 3138 3142 3143 3143 3144 3144 3145 3147 3147 3148 3150 3152 3153 3154 3155 3157 3158 3159 3160 3161 3162 3162 3163 3163 3164 3164 3164
3155 3156 3153 3152 3152 3151 3152 3152 3147 3149 3150 3148 3147 3147 3148 3138 3137 3140 3138 3137 3136 3136 3134 3138 3140 3140 3141 3143 3143 3143 3144 3145 3147 3148 3149 3151 3152 3153 3154 3155 3157 3158 3159 3161 3161 3162 3162 3162 3162
3153 3153 3149 3149 3150 3149 3148 3146 3146 3145 3145 3145 3144 3142 3141 3141 3134 3133 3133 3133 3132 3132 3133 3133 3135 3136 3137 3139 3140 3140 3141 3142 3142 3144 3146 3147 3149 3150 3151 3152 3154 3155 3156 3158 3159 3159 3160 3160 3160
3148 3148 3145 3147 3147 3145 3144 3144 3142 3141 3139 3139 3139 3140 3139 3135 3134 3131 3129 3127 3128 3128 3129 3129 3130 3132 3133 3134 3136 3137 3138 3139 3140 3141 3143 3143 3145 3145 3147 3149 3150 3152 3154 3155 3155 3156 3157 3157 3157
3146 3142 3142 3142 3142 3140 3138 3137 3139 3135 3133 3133 3132 3132 3131 3131 3130 3130 3128 3125 3124 3123 3123 3126 3127 3128 3129 3130 3131 3133 3134 3135 3136 3138 3139 3140 3140 3142 3142 3145 3147 3148 3150 3152 3153 3153 3153 3154 3154
3140 3139 3137 3137 3138 3136 3134 3132 3131 3130 3127 3127 3126 3128 3127 3126 3126 3125 3125 3124 3123 3119 3118 3120 3124 3124 3125 3125 3126 3127 3127 3129 3131 3133 3135 3135 3135 3136 3138 3141 3143 3144 3146 3147 3149 3150 3150 3150 3150
3133 3133 3133 3131 3131 3130 3129 3126 3125 3123 3122 3122 3123 3123 3123 3122 3120 3120 3122 3121 3122 3123 3116 3114 3119 3121 3121 3121 3122 3122 3123 3123 3126 3127 3129 3131 3130 3130 3132 3136 3138 3140 3141 3143 3144 3144 3146 3146 3147
3127 3125 3125 3124 3123 3122 3121 3121 3122 3119 3119 3119 3119 3119 3118 3116 3116 3116 3117 3117 3117 3118 3116 3112 3110 3115 3115 3116 3116 3117 3117 3119 3118 3119 3123 3126 3125 3125 3127 3128 3131 3134 3136 3138 3138 3139 3140 3141 3142
3120 3117 3116 3117 3116 3116 3117 3117 3117 3115 3116 3117 3117 3116 3115 3114 3113 3112 3113 3113 3113 3113 3113 3108 3105 3109 3110 3111 3111 3111 3111 3111 3112 3114 3117 3120 3120 3119 3121 3121 3123 3126 3129 3131 3132 3134 3135 3135 3136
3115 3114 3109 3109 3111 3112 3112 3113 3114 3113 3111 3114 3112 3113 3113 3112 3112 3110 3109 3110 3111 3111 3110 3108 3102 3102 3105 3105 3104 3104 3104 3103 3105 3107 3108 3111 3113 3115 3115 3114 3116 3118 3120 3123 3124 3127 3128 3129 3130
3109 3105 3106 3106 3108 3108 3108 3108 3109 3109 3108 3108 3108 3108 3107 3108 3107 3107 3105 3101 3103 3103 3102 3103 3099 3098 3098 3100 3100 3099 3098 3097 3098 3099 3098 3102 3104 3106 3107 3107 3108 3109 3111 3114 3116 3119 3120 3122 3123
3102 3101 3101 3102 3104 3104 3103 3102 3103 3103 3102 3102 3101 3102 3103 3104 3103 3096 3093 3092 3093 3093 3094 3095 3094 3092 3092 3093 3093 3093 3094 3094 3093 3092 3092 3094 3095 3097 3097 3098 3100 3101 3102 3105 3108 3111 3112 3113 3115
3099 3098 3096 3096 3098 3098 3098 3097 3097 3095 3095 3095 3096 3098 3098 3098 3091 3088 3088 3090 3091 3091 3091 3090 3090 3087 3085 3084 3085 3084 3083 3082 3082 3083 3083 3085 3087 3089 3088 3089 3090 3091 3093 3096 3100 3102 3103 3105 3106
3094 3093 3092 3094 3096 3096 3093 3090 3090 3086 3085 3086 3089 3086 3086 3083 3082 3082 3085 3086 3086 3086 3086 3086 3087 3087 3081 3078 3076 3076 3076 3074 3074 3073 3074 3075 3076 3079 3079 3081 3081 3081 3083 3086 3089 3091 3094 3093 3095
3087 3087 3089 3089 3089 3088 3088 3082 3081 3080 3081 3078 3075 3077 3079 3079 3078 3079 3081 3079 3079 3079 3077 3076 3079 3079 3078 3073 3066 3066 3064 3064 3064 3065 3064 3065 3065 3066 3068 3069 3071 3070 3074 3074 3077 3081 3083 3084 3086
3079 3084 3085 3084 3084 3079 3085 3074 3078 3078 3079 3071 3067 3070 3072 3073 3073 3074 3073 3070 3067 3065 3063 3064 3066 3066 3067 3067 3061 3057 3053 3052 3054 3051 3051 3051 3050 3051 3053 3055 3057 3057 3063 3063 3064 3068 3071 3072 3075
3071 3079 3080 3080 3079 3076 3077 3072 3071 3070 3069 3064 3065 3064 3065 3066 3068 3068 3066 3063 3060 3056 3054 3051 3049 3049 3050 3053 3054 3049 3046 3043 3042 3039 3036 3034 3035 3037 3037 3041 3043 3043 3047 3051 3053 3056 3057 3060 3065
3073 3075 3076 3077 3078 3065 3066 3069 3063 3060 3057 3060 3060 3061 3061 3060 3059 3058 3057 3055 3053 3050 3046 3041 3038 3036 3036 3040 3041 3040 3035 3032 3028 3026 3023 3021 3020 3020 3022 3023 3025 3029 3031 3038 3041 3046 3047 3049 3052
3064 3070 3072 3071 3070 3052 3056 3056 3060 3056 3054 3056 3056 3056 3056 3055 3053 3051 3050 3052 3047 3044 3039 3035 3033 3028 3021 3020 3025 3023 3018 3016 3013 3010 3009 3004 3002 3004 3005 3009 3008 3012 3015 3020 3026 3032 3036 3034 3039
3054 3059 3055 3057 3053 3045 3049 3042 3052 3048 3051 3052 3051 3050 3050 3049 3048 3048 3047 3044 3039 3035 3030 3024 3020 3020 3017 3010 3008 3006 3005 3003 2997 2993 2988 2986 2981 2981 2988 2992 2993 2995 3000 3005 3010 3016 3023 3025 3027
3048 3045 3053 3051 3050 3049 3039 3037 3042 3044 3043 3044 3045 3045 3045 3046 3045 3043 3040 3036 3032 3026 3022 3016 3009 3005 3004 3003 2997 2992 2988 2984 2983 2976 2972 2965 2960 2960 2966 2974 2977 2979 2983 2989 2994 3000 3004 3013 3015
3039 3044 3047 3048 3048 3047 3031 3035 3035 3034 3035 3037 3038 3037 3037 3036 3036 3035 3032 3027 3022 3018 3014 3008 3002 2994 2986 2990 2985 2979 2974 2969 2963 2960 2954 2948 2941 2941 2946 2954 2959 2962 2965 2972 2979 2982 2990 2994 3001
3029 3031 3035 3040 3039 3036 3031 3029 3026 3028 3030 3028 3029 3031 3030 3030 3028 3026 3022 3018 3013 3010 3004 2998 2992 2984 2978 2975 2971 2967 2962 2953 2945 2940 2933 2925 2916 2920 2928 2935 2941 2945 2950 2956 2962 2968 2973 2982 2985
3022 3026 3029 3030 3031 3032 3031 3018 3021 3026 3024 3025 3025 3024 3024 3024 3021 3017 3013 3008 3003 2998 2993 2988 2983 2977 2971 2965 2957 2954 2947 2938 2931 2922 2914 2905 2897 2899 2910 2922 2925 2931 2936 2941 2947 2952 2958 2963 2970
Wind_Speed
1 2 1 6 3 8 17 17 4 3 5 5 7 5 6 9 9 6 4 6 14 15 11 11 13 13 10 12 13 11 10 8 8 6 5 4 3 2 2 1 0 2 4 5 6 6 3 1 0
2 2 6 2 11 17 6 7 5 2 5 11 7 8 6 4 6 14 16 12 15 19 15 15 14 13 11 11 14 13 11 10 9 9 7 5 5 4 4 3 2 2 3 4 5 6 4 2 1
3 3 2 7 14 19 10 5 5 5 8 11 8 8 9 7 19 19 19 17 19 22 17 17 16 15 12 12 15 15 13 12 11 10 8 7 7 7 6 6 5 4 3 3 4 5 5 4 4
4 6 7 8 14 17 13 7 7 8 7 9 8 11 8 16 21 26 23 20 20 24 20 18 17 15 16 13 14 17 15 13 13 12 11 9 9 9 9 8 8 7 5 5 5 5 5 4 5
1 2 10 12 17 16 7 7 8 9 10 12 14 13 14 16 22 31 28 26 21 22 21 18 15 14 16 15 15 16 16 15 15 14 13 12 11 11 11 11 10 9 7 6 5 6 7 6 4
2 5 11 16 16 16 10 7 6 7 10 13 14 12 13 23 25 31 29 28 22 19 22 19 15 14 16 17 17 17 17 17 17 17 17 16 14 13 13 13 12 11 10 8 7 6 7 7 4
5 7 18 21 21 21 15 14 16 11 12 12 15 13 13 23 20 19 19 21 24 20 20 18 16 15 15 17 17 18 19 18 19 20 20 20 16 16 16 15 14 13 12 11 9 8 8 7 6
11 11 18 19 20 21 16 18 15 15 17 18 18 13 10 21 24 20 30 26 25 21 21 20 19 20 18 16 18 21 21 21 22 23 23 22 20 20 19 18 17 16 15 13 12 11 10 8 8
10 16 22 21 19 22 20 20 18 18 21 19 18 23 21 21 26 27 26 23 25 24 20 20 20 22 21 19 21 23 23 24 25 26 25 24 24 23 22 21 18 18 17 16 15 14 13 11 10
16 15 21 18 22 23 21 20 23 24 23 21 18 16 17 19 21 21 29 24 17 24 25 24 22 20 21 22 24 26 27 27 28 28 27 28 26 27 26 24 21 20 20 19 18 17 15 14 12
19 27 24 26 23 27 28 26 26 24 25 21 20 22 19 18 20 22 23 21 17 18 24 24 25 24 22 23 25 27 29 30 31 30 29 31 30 30 30 26 24 23 23 22 21 20 19 17 15
23 28 29 26 27 27 26 25 25 24 30 24 21 20 20 21 21 21 20 17 19 21 25 23 26 27 26 25 25 27 30 31 32 33 31 33 33 33 32 30 27 27 26 25 24 23 22 19 19
26 27 29 30 27 26 25 25 25 28 25 21 18 17 16 17 18 17 17 22 16 19 29 28 20 25 28 30 30 29 30 30 32 35 34 31 35 35 35 32 32 30 30 28 27 27 24 23 20
25 26 27 25 25 24 26 26 22 23 16 16 15 12 15 19 13 11 14 17 16 20 24 28 28 18 25 32 34 33 33 34 34 36 34 32 35 37 36 35 35 35 33 31 31 30 27 27 24
22 27 26 28 28 25 21 26 21 13 11 12 9 9 8 12 15 18 17 17 16 16 21 26 33 25 21 26 32 36 35 36 37 37 34 33 35 38 37 39 37 37 37 35 35 32 31 30 29
22 25 32 27 25 22 17 19 16 12 10 13 9 10 20 22 18 17 17 18 18 20 23 24 33 30 23 24 28 33 38 40 39 38 36 36 37 38 40 41 42 41 41 39 38 35 35 33 32
22 31 28 24 14 13 14 20 12 13 17 18 22 23 19 15 12 9 10 12 12 14 16 18 29 33 31 25 25 31 35 39 43 43 44 40 37 38 42 44 45 44 45 43 41 38 39 37 36
23 25 24 24 14 16 17 22 22 23 24 23 21 18 18 12 12 19 22 23 21 18 19 22 25 30 32 30 28 29 32 38 40 42 43 45 43 41 43 45 46 45 48 46 44 41 42 41 39
28 28 29 24 21 23 25 28 25 25 23 24 21 19 15 14 22 25 26 20 13 18 17 18 21 28 29 29 26 28 33 35 40 42 43 40 43 46 42 46 46 49 50 47 45 44 45 45 44
25 26 27 27 24 24 25 24 24 30 23 19 21 19 22 28 29 29 24 16 18 19 20 17 18 24 30 32 35 34 36 39 41 45 48 48 45 45 47 47 49 51 48 48 49 48 48 49 49
27 28 27 29 26 26 25 31 24 7 8 15 19 23 25 29 31 30 24 27 31 34 33 32 29 29 29 34 41 38 42 41 43 47 48 50 51 50 49 50 53 55 51 49 48 50 51 51 50
32 24 24 23 23 26 17 20 19 14 12 18 23 25 26 28 29 29 32 36 39 44 47 42 37 35 32 30 40 44 44 47 43 46 47 50 51 53 51 53 53 58 56 54 53 48 51 53 52
32 21 21 21 25 29 24 21 17 16 27 15 16 14 16 17 20 23 28 31 39 44 43 45 44 43 37 22 31 40 47 51 46 50 51 48 49 51 53 54 55 59 61 59 58 53 52 53 53
29 26 25 23 19 18 25 22 7 21 28 12 9 13 12 12 16 21 25 33 32 32 34 39 45 50 51 44 34 36 44 49 57 52 53 60 57 52 50 55 56 59 63 63 62 56 53 53 54
21 21 9 11 10 11 10 20 21 9 9 11 9 3 1 8 14 22 26 21 27 26 30 33 36 36 42 40 29 33 41 50 55 60 63 62 63 64 56 51 57 57 63 63 63 61 58 54 54
26 31 16 9 11 15 22 15 15 8 4 9 5 5 9 12 19 18 20 23 29 30 36 39 43 42 42 45 49 44 39 40 52 59 61 64 73 65 63 54 51 55 58 64 67 66 61 58 53
29 39 32 28 28 16 15 17 19 11 9 13 8 5 10 14 19 21 25 26 28 31 31 37 43 47 46 41 45 51 49 47 49 51 57 66 71 79 62 56 51 51 53 62 70 67 67 60 58
33 25 28 19 5 8 12 16 16 6 5 7 13 15 18 22 28 28 31 35 35 36 41 42 43 49 55 48 44 49 53 56 54 55 57 59 74 68 73 54 52 52 53 56 63 70 65 62 59
28 20 21 18 15 3 5 7 8 4 11 14 21 26 30 38 33 28 36 40 44 47 46 44 32 43 54 54 55 53 56 56 58 57 60 64 62 71 65 55 51 50 49 55 55 62 73 67 61
29 27 25 13 9 12 9 18 16 18 15 22 28 33 30 26 33 35 40 42 44 46 49 49 47 51 54 54 56 50 55 56 60 60 57 66 51 62 44 54 47 47 45 46 47 54 69 69 64
Wind_Direction
358 56 353 55 284 246 253 258 146 71 114 307 331 335 308 334 314 271 227 277 282 284 297 304 306 312 288 256 239 229 222 219 222 210 207 216 229 237 235 202 54 32 28 19 7 2 360 9 26
328 316 45 88 252 266 283 44 20 176 241 296 345 335 322 313 267 265 266 272 276 277 287 290 296 298 285 258 240 237 228 231 231 230 214 228 239 244 245 254 282 334 355 2 3 354 345 326 297
325 355 61 258 247 269 332 35 314 359 328 317 310 292 315 265 275 269 282 279 279 282 282 280 289 293 280 253 240 239 236 236 241 242 234 230 246 248 246 248 257 275 299 333 346 348 341 319 303
285 13 308 260 272 286 308 315 322 291 302 314 304 300 321 280 277 291 296 280 276 277 275 274 277 283 280 255 241 239 241 240 245 246 245 243 247 252 249 244 249 257 279 305 325 336 329 316 302
350 231 253 255 268 270 314 310 288 289 289 280 294 295 299 278 274 279 287 292 287 276 266 266 267 272 271 256 242 240 244 245 248 248 249 247 246 250 254 250 250 253 264 282 306 315 316 313 296
195 242 266 267 275 296 323 313 277 303 295 295 297 294 282 299 282 273 286 289 288 280 267 258 257 267 264 256 245 241 246 248 252 253 253 250 246 250 254 256 255 255 259 269 280 290 300 298 289
234 243 261 273 287 298 302 297 298 300 304 294 279 297 258 275 270 278 285 290 282 278 275 252 248 257 266 259 254 247 246 251 254 254 255 253 251 252 254 256 256 256 256 258 264 272 276 282 281
246 259 274 274 281 287 291 293 295 305 297 290 304 286 241 302 276 271 276 281 283 270 270 264 250 252 256 267 258 249 249 253 255 257 256 256 254 253 254 256 257 258 256 258 260 263 268 268 263
239 255 254 263 274 287 291 293 287 283 287 284 286 287 283 282 290 290 272 271 267 263 265 267 256 251 249 250 257 254 252 255 256 258 260 256 253 255 257 258 259 259 259 257 258 260 264 264 256
244 249 257 267 277 292 290 292 288 290 289 287 287 285 278 292 288 292 292 293 268 259 258 265 263 254 250 248 254 258 258 257 260 262 265 263 260 260 258 259 257 258 258 256 255 257 259 259 257
257 258 269 272 279 279 285 283 286 283 279 277 278 272 260 259 266 252 274 291 281 274 258 252 261 260 256 250 252 255 260 261 260 263 264 265 263 262 263 260 257 256 258 257 257 255 256 256 253
263 261 268 276 273 276 279 281 277 280 281 286 288 284 280 275 270 270 270 272 289 279 282 256 251 261 261 258 253 254 256 259 261 262 263 263 265 267 266 263 257 255 255 255 255 254 255 255 250
265 268 269 268 270 273 275 276 282 283 288 287 288 279 281 279 269 262 265 271 254 262 275 285 268 259 262 267 264 260 262 261 259 258 257 259 262 265 268 263 260 256 254 254 252 253 255 253 252
261 267 262 264 267 268 272 279 283 287 294 282 279 264 254 260 283 275 266 277 263 250 261 281 290 274 265 261 266 268 266 265 259 258 257 254 261 265 267 265 260 257 255 253 252 254 251 253 251
258 266 269 264 272 271 274 273 265 306 316 238 272 271 255 323 320 316 302 298 291 281 282 283 283 285 275 269 265 265 268 268 265 263 261 261 261 264 267 265 263 259 255 254 251 252 251 251 250
272 272 273 279 273 270 250 264 273 268 269 253 244 284 283 282 277 271 269 266 267 263 259 265 273 277 272 269 270 265 263 265 267 267 264 261 261 264 265 265 264 260 256 254 253 253 253 253 251
259 259 265 276 268 233 241 269 260 281 291 280 269 287 277 282 295 301 258 241 244 258 249 254 268 276 279 268 265 269 269 267 266 265 264 261 258 259 263 266 263 258 255 254 253 252 253 253 251
253 253 260 261 258 256 268 269 277 276 273 272 271 275 283 284 250 235 238 238 238 252 244 242 253 270 277 279 275 268 271 277 275 271 267 265 260 259 258 262 261 261 255 253 252 252 252 252 252
255 262 269 272 281 287 281 279 280 275 271 269 266 268 250 233 231 233 242 257 277 304 308 276 250 258 277 282 279 273 266 265 270 275 274 272 269 266 257 259 261 262 255 252 253 252 252 253 252
251 256 263 270 274 277 281 280 280 287 284 271 256 227 213 213 223 230 243 248 269 293 285 267 263 274 285 286 285 281 283 271 264 265 270 272 270 266 265 257 259 259 260 253 250 249 249 251 253
246 253 263 273 280 276 287 287 301 221 198 208 202 214 217 223 229 236 247 266 278 290 290 287 282 283 289 285 287 281 279 273 271 267 264 267 269 268 265 262 255 257 254 256 256 251 251 252 254
249 249 261 270 281 279 283 290 274 238 267 213 207 217 221 229 237 246 253 276 296 304 301 297 296 291 282 280 278 276 277 276 269 268 265 264 260 262 261 261 255 255 254 252 252 253 253 253 252
248 249 252 270 276 284 271 266 269 256 200 189 205 223 243 251 260 274 288 300 305 304 303 307 310 312 310 290 273 278 279 278 284 270 266 263 261 262 257 256 254 251 251 251 250 249 251 255 254
247 251 258 262 264 265 261 240 328 231 182 177 200 252 283 308 317 308 309 308 304 298 307 312 314 310 306 307 294 279 278 274 273 271 275 265 263 259 260 253 249 247 250 249 251 250 249 252 253
224 218 228 228 221 248 246 233 215 162 219 232 232 172 6 326 309 308 317 313 300 309 299 297 301 299 308 306 289 272 268 266 267 267 270 272 270 259 257 263 254 245 246 248 249 252 249 248 251
212 204 197 223 225 253 249 236 232 214 273 258 271 316 314 312 315 314 304 295 299 303 302 303 302 299 294 294 301 299 293 282 267 264 258 259 261 264 257 256 258 248 246 245 246 248 249 248 248
217 219 221 261 276 287 252 250 251 283 167 216 227 273 302 309 307 313 308 307 305 305 296 302 304 303 302 303 300 296 295 291 288 290 282 278 256 258 258 256 256 250 248 242 247 244 244 249 250
218 227 212 216 192 224 252 254 253 246 261 263 270 293 295 298 305 309 306 302 298 297 297 297 298 303 303 300 298 299 301 299 290 294 290 293 274 255 255 253 253 251 249 239 242 244 245 239 249
205 215 205 216 223 245 271 242 219 254 292 298 290 294 300 305 307 306 300 298 297 297 297 296 297 289 295 303 306 302 302 303 300 295 295 293 282 254 258 254 251 250 246 236 243 244 242 241 238
217 213 206 202 198 217 247 243 240 281 275 282 291 303 310 305 300 298 294 302 305 306 301 293 292 295 297 301 303 306 300 305 301 304 301 300 277 256 251 246 247 246 247 247 244 245 242 237 234